Powrót do katalogu

SL-3 R/B

AktywnyPO
NORAD 9662·ROCKET BODY·🇷🇺 Russia

Wystrzelony Jan 6, 1977 z Plesetsk Cosmodrome

Loading…

Następne Przeloty (najbliższe 24 godziny)

TLE

ŚwieżeSource: Space-Track

Epoka: Sep 14, 2026, 06:21 UTC

1 09662U 77002B   26257.26473626  .00000086  00000-0  48071-4 0  9995
2 09662  81.2715  87.5276 0052250  12.0082 348.2315 14.01317959539105

Śledź SL-3 R/B w czasie rzeczywistym z AllMySat

Download on the App Store